TimeEDT,TemperatureF,Dew PointF,Humidity,Sea Level PressureIn,VisibilityMPH,Wind Direction,Wind SpeedMPH,Gust SpeedMPH,PrecipitationIn,Events,Conditions,WindDirDegrees,DateUTC
12:51 AM,66.0,53.1,63,30.03,10.0,Calm,Calm,-,N/A,,Clear,0,2013-08-06 04:51:00
1:51 AM,66.0,54.0,65,30.04,10.0,Calm,Calm,-,N/A,,Clear,0,2013-08-06 05:51:00
2:51 AM,64.9,53.1,65,30.04,10.0,Calm,Calm,-,N/A,,Clear,0,2013-08-06 06:51:00
3:51 AM,63.0,54.0,72,30.04,10.0,Calm,Calm,-,N/A,,Clear,0,2013-08-06 07:51:00
4:51 AM,61.0,54.0,78,30.06,10.0,North,3.5,-,N/A,,Clear,360,2013-08-06 08:51:00
5:51 AM,60.1,55.0,83,30.06,10.0,Calm,Calm,-,N/A,,Clear,0,2013-08-06 09:51:00
6:51 AM,61.0,55.0,81,30.08,10.0,North,3.5,-,N/A,,Clear,10,2013-08-06 10:51:00
7:51 AM,64.9,55.9,73,30.08,10.0,North,3.5,-,N/A,,Clear,10,2013-08-06 11:51:00
8:51 AM,71.1,57.9,63,30.08,10.0,Variable,3.5,-,N/A,,Clear,0,2013-08-06 12:51:00
9:51 AM,73.0,55.9,55,30.09,10.0,Calm,Calm,-,N/A,,Clear,0,2013-08-06 13:51:00
10:51 AM,78.1,57.0,48,30.09,10.0,ESE,6.9,-,N/A,,Clear,110,2013-08-06 14:51:00
11:51 AM,75.9,54.0,46,30.09,10.0,SSW,5.8,-,N/A,,Overcast,210,2013-08-06 15:51:00
12:51 PM,78.1,51.1,39,30.09,10.0,South,4.6,19.6,N/A,,Scattered Clouds,170,2013-08-06 16:51:00
1:51 PM,80.1,48.9,34,30.08,10.0,Variable,6.9,18.4,N/A,,Clear,0,2013-08-06 17:51:00
2:51 PM,82.0,51.1,34,30.07,10.0,SW,6.9,17.3,N/A,,Overcast,230,2013-08-06 18:51:00
3:51 PM,80.1,50.0,35,30.07,10.0,SSE,10.4,-,N/A,,Clear,160,2013-08-06 19:51:00
4:51 PM,80.1,52.0,38,30.08,10.0,SSW,11.5,-,N/A,,Clear,200,2013-08-06 20:51:00
5:51 PM,78.1,52.0,40,30.08,10.0,South,12.7,20.7,N/A,,Clear,180,2013-08-06 21:51:00
6:51 PM,75.9,50.0,40,30.09,10.0,South,11.5,-,N/A,,Clear,180,2013-08-06 22:51:00
7:51 PM,73.9,55.0,52,30.10,10.0,SSE,8.1,-,N/A,,Partly Cloudy,160,2013-08-06 23:51:00
8:51 PM,73.0,55.0,53,30.10,10.0,South,6.9,-,N/A,,Mostly Cloudy,180,2013-08-07 00:51:00
9:51 PM,72.0,57.9,61,30.11,10.0,South,5.8,-,N/A,,Mostly Cloudy,180,2013-08-07 01:51:00
10:51 PM,71.1,59.0,66,30.11,10.0,South,8.1,-,N/A,,Overcast,170,2013-08-07 02:51:00
11:51 PM,72.0,59.0,64,30.12,10.0,South,5.8,-,N/A,,Overcast,170,2013-08-07 03:51:00